Grand Marais, MN

11:40 PM CST on February 24, 2017 (GMT -0600)
Grand Marais

Weather History for KGNA - June, 2013

Change the Weather History Date:

Saturday, June 15, 2013

  Actual Average (KCKC) Record (KCKC)
Temperature  
Mean Temperature 44 °F -  
Max Temperature 52 °F 65 °F 84 °F (1998)
Min Temperature 39 °F 45 °F 39 °F (1999)
Degree Days  
Heating Degree Days 20    
Moisture  
Dew Point 38 °F    
Average Humidity 75    
Maximum Humidity 89    
Minimum Humidity 61    
Precipitation  
Precipitation 0.02 in - - ()
Sea Level Pressure  
Sea Level Pressure 29.89 in    
Wind  
Wind Speed 4 mph (ENE)    
Max Wind Speed 10 mph    
Max Gust Speed -    
Averages and records for this station are not official NWS values.
T = Trace of Precipitation, MM = Missing Value Source: NWS Daily Summary

Daily Weather History Graph

Daily Weather History Graph

Search for Another Location

Airport or City:

Trip Planner

Search our weather history database for the weather conditions in past years. The results will help you decide how hot, cold, wet, or windy it might be!

Date:

Astronomy

Jun. 15, 2013 Rise Set
Actual Time 5:02 AM CDT 9:01 PM CDT
Civil Twilight 4:21 AM CDT 9:42 PM CDT
Nautical Twilight 3:24 AM CDT 10:39 PM CDT
Astronomical Twilight 1:53 AM CDT 12:11 AM CDT
Moon 12:04 PM CDT (6/15) 12:12 AM CDT (6/15)
Length of Visible Light 17h 21m
Length of Day
15h 59m
Waxing Crescent, 40% of the Moon is Illuminated
Jun 15
Waxing Crescent
Jun 16
First Quarter
Jun 23
Full
Jun 29
Last Quarter
Jul 8
New

Hourly Weather History & Observations

Time (CDT) Temp. Windchill Dew Point Humidity Pressure Visibility Wind Dir Wind Speed Gust Speed Precip Events Conditions
12:56 AM 48.9 °F - 37.9 °F 66% 29.98 in - ENE 4.6 mph - N/A   Unknown
1:56 AM 50.0 °F - 41.0 °F 71% 29.95 in - Calm Calm - N/A   Unknown
2:56 AM 50.0 °F - 37.0 °F 61% 29.94 in - NE 3.5 mph - N/A   Unknown
3:56 AM 46.0 °F 44.8 °F 39.0 °F 76% 29.93 in - NE 3.5 mph - 0.01 in   Unknown
4:56 AM 50.0 °F - 46.0 °F 86% 29.95 in - Calm Calm - N/A   Unknown
5:56 AM 45.0 °F 42.6 °F 37.9 °F 76% 29.94 in - ENE 4.6 mph - N/A   Unknown
6:56 AM 44.1 °F 39.0 °F 39.0 °F 82% 29.94 in - ENE 9.2 mph - N/A   Unknown
7:56 AM 48.0 °F - 39.9 °F 74% 29.93 in - NE 5.8 mph - N/A   Unknown
8:56 AM 46.0 °F 41.0 °F 37.9 °F 73% 29.94 in - ENE 10.4 mph - N/A   Unknown
9:56 AM 46.9 °F - 37.0 °F 68% 29.92 in - ENE 6.9 mph - N/A   Unknown
10:56 AM 46.0 °F 42.5 °F 37.9 °F 73% 29.90 in - ENE 6.9 mph - N/A   Unknown
11:56 AM 46.9 °F - 37.0 °F 68% 29.92 in - Calm Calm - N/A   Unknown
12:56 PM 48.0 °F - 37.0 °F 66% 29.91 in - ENE 3.5 mph - N/A   Unknown
1:56 PM 46.9 °F - 36.0 °F 66% 29.90 in - East 6.9 mph - N/A   Unknown
2:56 PM 48.0 °F - 37.0 °F 66% 29.90 in - NE 4.6 mph - N/A   Unknown
3:56 PM 45.0 °F 41.8 °F 37.0 °F 74% 29.87 in - ENE 5.8 mph - N/A   Unknown
4:56 PM 45.0 °F 42.6 °F 39.0 °F 80% 29.86 in - ENE 4.6 mph - 0.01 in   Unknown
5:56 PM 46.0 °F 44.8 °F 39.0 °F 76% 29.84 in - East 3.5 mph - N/A   Unknown
6:56 PM 46.0 °F - 37.0 °F 71% 29.82 in - Calm Calm - N/A   Unknown
7:56 PM 44.1 °F - 37.9 °F 79% 29.82 in - Calm Calm - N/A   Unknown
8:56 PM 42.1 °F - 37.0 °F 82% 29.82 in - Calm Calm - N/A   Unknown
9:56 PM 39.9 °F 37.8 °F 37.0 °F 89% 29.82 in - SSW 3.5 mph - N/A   Unknown
10:56 PM 39.9 °F - 37.0 °F 89% 29.81 in - Calm Calm - N/A   Unknown
11:56 PM 39.9 °F 37.8 °F 37.0 °F 89% 29.80 in - WSW 3.5 mph - N/A   Unknown